STARLINK-32449, 61670

Orbit data source: Space-Track

STARLINK-32449, 61670 is a payload satellite owned by SpaceX/Seattle (US) in LEO that was launched on Sat, 26 Oct 2024 UTC via an FALCON 9 launch vehicle from the Air Force Eastern Test Range (AFETR). Payload-class satellites include a variety of spacecraft equipped with specific instruments for various scientific and technological missions. These include communications satellites like Starlink; space stations such as the ISS; scientific satellites like the Hubble; Earth observation satellites from companies like Planet Labs, Umbra, and HawkEye 360; GPS; miniature CubeSats for education and research; and military/defense satellites.

Loading next visibility...
Identifier
61670, 2024-193K
Orbit
LEO
Country
Flag of USUS
Related business
Manufacturer
SpaceX/Seattle
Mission
Operational Commercial Communications
Bus & Motor
STARLINK V2M, Unknown motor
Mass
730 kg wet, ~700 kg dry
Launch date (UTC)
2024-10-26 (11 months ago)
Launch vehicle
FALCON 9
Launch site
Air Force Eastern Test Range (AFETR)
Object type
Payload
Rocket body
Debris
Shape & HBR
Box + 2 Pan, 14.5 m
Radar Cross Section
36.964 m², Large (>1 m²)

Expand to show TLE details & history
Last TLE update: 15 hours ago

TLE from 15 hours ago
0 STARLINK-32449
1 61670U 24193K   25258.49973157  .00001579  00000-0  65400-4 0  9997
2 61670  53.1606 184.7934 0000889 107.0699 253.0400 15.30201762 49707
Epoch: 2025-09-15T11:59Z
TLE epoch observation values (Epoch: 2025-09-15T11:59:36.807Z)
Latitude
0.00003°
Longitude
10.18656°
Altitude
476.287 km
Speed
7.629 km/s
True Right ascension
12h 19m 10s
True Declination
0° 00' 00"
Sunlit
Object was in daylight at epoch
Visualization orbit readout
Latitude
Unknown
Longitude
Unknown
Altitude
Unknown
Speed
Unknown
Apparent Right ascension
Unknown
Apparent Declination
Unknown
Sunlit
N/A
Visualization observer readout
Local Sidereal Time
20:02:26
Azimuth
Unknown
Elevation
Unknown
Doppler factor
Unknown
Orbital elements
Apogee altitude
476.075 km
Perigee altitude
474.857 km
Semi-major axis
6,853.603 km
Eccentricity
0.00009
Inclination
53.1606°
RAAN
184.7934°
Arg. of periapsis
107.0699°
True anomaly
253.03026°
Mean anomaly
253.04°
Eccentric anomaly
253.03513°
Mean motion
3.82529 °/min
Orbital period
94.11 mins
BSTAR
0.0000654
Loading maneuver chart data...
Computing Atmospheric mass density...
Loading historical data...
Loading historical data...
Loading historical data...
Loading historical data...
Loading historical data...
Loading historical data...
Loading historical data...

Documentation

Showing up to 5 results
|